| time (UTC) | temp F | wind direction | speed MPH | gust MPH | rain 1hr in | rain 24hr in | rain mn in | humidity % | barometer mb |
| 20260505173053 | 31 | 0 | 0.0 | 7.0 | 0.01 | 0.27 | 0.02 | 94 | 1014.4 |
| 20260505172547 | 31 | 49 | 3.0 | 7.0 | 0.01 | 0.27 | 0.02 | 94 | 1014.3 |
| 20260505172048 | 32 | 49 | 2.0 | 5.0 | 0.01 | 0.27 | 0.02 | 94 | 1014.5 |
| 20260505171554 | 32 | 0 | 0.0 | 5.0 | 0.01 | 0.27 | 0.02 | 94 | 1014.7 |
| 20260505171048 | 32 | 0 | 0.0 | 5.0 | 0.01 | 0.27 | 0.02 | 94 | 1014.6 |
| 20260505170549 | 32 | 0 | 0.0 | 4.0 | 0.01 | 0.27 | 0.02 | 94 | 1014.6 |
| 20260505170056 | 32 | 0 | 0.0 | 6.0 | 0.01 | 0.27 | 0.02 | 94 | 1014.7 |
| 20260505165548 | 32 | 49 | 2.0 | 6.0 | 0.01 | 0.27 | 0.02 | 94 | 1014.6 |
| 20260505165047 | 32 | 0 | 0.0 | 9.0 | 0.01 | 0.27 | 0.02 | 94 | 1014.6 |
| 20260505164553 | 32 | 0 | 2.0 | 9.0 | 0.01 | 0.27 | 0.02 | 94 | 1014.6 |
| 20260505164048 | 32 | 0 | 0.0 | 3.0 | 0.00 | 0.26 | 0.01 | 94 | 1014.5 |
| 20260505163548 | 32 | 0 | 1.0 | 3.0 | 0.00 | 0.26 | 0.01 | 94 | 1014.5 |
| 20260505163052 | 32 | 0 | 0.0 | 2.0 | 0.00 | 0.26 | 0.01 | 94 | 1014.6 |
| 20260505162548 | 32 | 0 | 0.0 | 6.0 | 0.00 | 0.26 | 0.01 | 94 | 1014.6 |
| 20260505162047 | 32 | 0 | 0.0 | 6.0 | 0.00 | 0.26 | 0.01 | 94 | 1014.6 |
| 20260505161559 | 32 | 0 | 0.0 | 3.0 | 0.00 | 0.26 | 0.01 | 94 | 1014.6 |
| 20260505161045 | 32 | 0 | 0.0 | 4.0 | 0.00 | 0.26 | 0.01 | 94 | 1014.7 |
| 20260505160547 | 31 | 0 | 0.0 | 4.0 | 0.00 | 0.26 | 0.01 | 94 | 1014.7 |
| 20260505153104 | 31 | 0 | 0.0 | 0.0 | 0.00 | 0.26 | 0.01 | 94 | 1014.9 |
| 20260505152548 | 31 | 0 | 0.0 | 0.0 | 0.00 | 0.26 | 0.01 | 94 | 1015.0 |
| 20260505152046 | 31 | 0 | 0.0 | 0.0 | 0.00 | 0.26 | 0.01 | 94 | 1015.0 |
| 20260505151554 | 31 | 0 | 0.0 | 0.0 | 0.00 | 0.26 | 0.01 | 94 | 1015.0 |
| 20260505151050 | 31 | 0 | 0.0 | 0.0 | 0.00 | 0.26 | 0.01 | 94 | 1015.1 |
| 20260505150546 | 31 | 0 | 0.0 | 0.0 | 0.00 | 0.26 | 0.01 | 94 | 1015.1 |
| 20260505140546 | 30 | 45 | 2.0 | 6.0 | 0.00 | 0.26 | 0.01 | 94 | 1015.2 |
| 20260505130116 | 30 | 0 | 0.0 | 3.0 | 0.00 | 0.26 | 0.01 | 94 | 1014.7 |
| 20260505124608 | 30 | 0 | 2.0 | 6.0 | 0.00 | 0.26 | 0.01 | 94 | 1014.6 |
| 20260505124049 | 31 | 53 | 0.0 | 4.0 | 0.00 | 0.26 | 0.01 | 94 | 1014.6 |
| 20260505123552 | 31 | 0 | 1.0 | 5.0 | 0.00 | 0.26 | 0.01 | 94 | 1014.6 |
| 20260505123115 | 31 | 53 | 0.0 | 6.0 | 0.00 | 0.26 | 0.01 | 94 | 1014.6 |
| 20260505122549 | 31 | 54 | 0.0 | 11.0 | 0.00 | 0.26 | 0.01 | 94 | 1014.4 |
| 20260505122047 | 31 | 0 | 2.0 | 11.0 | 0.00 | 0.26 | 0.01 | 94 | 1014.3 |
| 20260505121552 | 31 | 62 | 3.0 | 11.0 | 0.00 | 0.26 | 0.01 | 94 | 1014.4 |
| 20260505121052 | 31 | 0 | 2.0 | 10.0 | 0.00 | 0.26 | 0.01 | 94 | 1014.5 |
| 20260505120548 | 31 | 0 | 4.0 | 10.0 | 0.00 | 0.26 | 0.01 | 94 | 1014.4 |
| 20260505115546 | 32 | 0 | 0.0 | 5.0 | 0.00 | 0.26 | 0.01 | 94 | 1014.3 |
| 20260505115047 | 32 | 0 | 2.0 | 6.0 | 0.00 | 0.26 | 0.01 | 94 | 1014.3 |
| 20260505114552 | 32 | 0 | 3.0 | 6.0 | 0.00 | 0.26 | 0.01 | 94 | 1014.2 |
| 20260505114047 | 32 | 41 | 1.0 | 6.0 | 0.00 | 0.26 | 0.01 | 94 | 1014.2 |
| 20260505113552 | 33 | 0 | 0.0 | 0.0 | 0.00 | 0.26 | 0.01 | 94 | 1014.3 |
| 20260505113059 | 33 | 0 | 0.0 | 0.0 | 0.00 | 0.26 | 0.01 | 94 | 1014.2 |
| 20260505112548 | 33 | 0 | 0.0 | 0.0 | 0.00 | 0.26 | 0.01 | 94 | 1014.1 |
| 20260505112048 | 33 | 0 | 0.0 | 0.0 | 0.00 | 0.26 | 0.01 | 94 | 1014.0 |
| 20260505111553 | 33 | 0 | 0.0 | 5.0 | 0.00 | 0.26 | 0.01 | 94 | 1014.1 |
| 20260505111048 | 33 | 0 | 0.0 | 6.0 | 0.00 | 0.26 | 0.01 | 94 | 1014.2 |
| 20260505110547 | 33 | 38 | 3.0 | 8.0 | 0.00 | 0.26 | 0.01 | 94 | 1014.1 |
| 20260505102148 | 34 | 53 | 6.0 | 14.0 | 0.00 | 0.26 | 0.01 | 94 | 1013.8 |
| 20260505101554 | 34 | 54 | 4.0 | 14.0 | 0.00 | 0.26 | 0.01 | 94 | 1013.8 |
| 20260505101047 | 34 | 58 | 0.0 | 11.0 | 0.00 | 0.26 | 0.01 | 94 | 1013.8 |
| 20260505100547 | 34 | 55 | 2.0 | 11.0 | 0.00 | 0.26 | 0.01 | 94 | 1013.9 |
| 20260505100053 | 34 | 53 | 5.0 | 10.0 | 0.00 | 0.26 | 0.01 | 94 | 1013.9 |
| 20260505095544 | 34 | 360 | 2.0 | 14.0 | 0.00 | 0.26 | 0.01 | 94 | 1013.9 |
| 20260505095043 | 34 | 53 | 5.0 | 14.0 | 0.00 | 0.26 | 0.01 | 94 | 1013.8 |
| 20260505094554 | 34 | 57 | 3.0 | 11.0 | 0.00 | 0.26 | 0.01 | 94 | 1013.7 |
| 20260505094043 | 35 | 34 | 2.0 | 14.0 | 0.00 | 0.26 | 0.01 | 94 | 1013.6 |
| 20260505093547 | 35 | 36 | 5.0 | 15.0 | 0.00 | 0.26 | 0.01 | 94 | 1013.7 |
| 20260505093054 | 35 | 42 | 7.0 | 15.0 | 0.00 | 0.26 | 0.01 | 94 | 1013.6 |
| 20260505092548 | 35 | 30 | 4.0 | 11.0 | 0.00 | 0.26 | 0.01 | 94 | 1013.6 |
| 20260505092048 | 36 | 32 | 5.0 | 11.0 | 0.00 | 0.26 | 0.01 | 94 | 1013.5 |
| 20260505091618 | 36 | 44 | 4.0 | 10.0 | 0.00 | 0.26 | 0.01 | 94 | 1013.6 |
| 20260505091047 | 36 | 31 | 3.0 | 10.0 | 0.00 | 0.26 | 0.01 | 94 | 1013.6 |
| 20260505090547 | 36 | 28 | 3.0 | 10.0 | 0.00 | 0.26 | 0.01 | 94 | 1013.6 |
| 20260505090109 | 37 | 26 | 2.0 | 10.0 | 0.00 | 0.26 | 0.01 | 94 | 1013.6 |
| 20260505085548 | 37 | 31 | 2.0 | 10.0 | 0.00 | 0.26 | 0.01 | 94 | 1013.6 |
| 20260505085051 | 37 | 0 | 1.0 | 10.0 | 0.00 | 0.26 | 0.01 | 94 | 1013.6 |
| 20260505084607 | 37 | 0 | 0.0 | 10.0 | 0.00 | 0.26 | 0.01 | 94 | 1013.6 |
| 20260505084047 | 37 | 0 | 2.0 | 10.0 | 0.00 | 0.26 | 0.01 | 94 | 1013.6 |
| 20260505083551 | 37 | 0 | 0.0 | 6.0 | 0.00 | 0.26 | 0.01 | 94 | 1013.6 |
| 20260505083107 | 38 | 0 | 0.0 | 7.0 | 0.00 | 0.26 | 0.01 | 94 | 1013.5 |
| 20260505082547 | 38 | 44 | 2.0 | 7.0 | 0.00 | 0.26 | 0.01 | 94 | 1013.8 |
| 20260505082047 | 39 | 53 | 3.0 | 6.0 | 0.00 | 0.26 | 0.01 | 94 | 1013.6 |
| 20260505081559 | 39 | 0 | 0.0 | 5.0 | 0.00 | 0.26 | 0.01 | 94 | 1013.7 |
| 20260505081047 | 39 | 0 | 0.0 | 0.0 | 0.00 | 0.26 | 0.01 | 94 | 1013.8 |
| 20260505080551 | 39 | 0 | 0.0 | 0.0 | 0.00 | 0.26 | 0.01 | 94 | 1013.8 |
| 20260505080059 | 39 | 0 | 0.0 | 0.0 | 0.00 | 0.26 | 0.01 | 94 | 1013.8 |
| 20260505075548 | 39 | 0 | 0.0 | 0.0 | 0.00 | 0.26 | 0.01 | 94 | 1013.8 |
| 20260505075048 | 39 | 0 | 0.0 | 0.0 | 0.00 | 0.26 | 0.01 | 94 | 1013.8 |
| 20260505074549 | 39 | 0 | 0.0 | 0.0 | 0.00 | 0.26 | 0.01 | 94 | 1013.9 |
| 20260505074048 | 39 | 0 | 0.0 | 0.0 | 0.00 | 0.26 | 0.01 | 94 | 1014.0 |
| 20260505073548 | 39 | 0 | 0.0 | 0.0 | 0.00 | 0.26 | 0.01 | 94 | 1014.1 |
| 20260505073055 | 39 | 0 | 0.0 | 0.0 | 0.00 | 0.26 | 0.01 | 94 | 1014.1 |
| 20260505072546 | 39 | 0 | 0.0 | 0.0 | 0.00 | 0.26 | 0.01 | 94 | 1014.1 |
| 20260505072046 | 39 | 0 | 0.0 | 0.0 | 0.00 | 0.26 | 0.01 | 94 | 1014.1 |
| 20260505071603 | 39 | 0 | 0.0 | 0.0 | 0.00 | 0.26 | 0.01 | 94 | 1014.1 |
| 20260505071052 | 39 | 0 | 0.0 | 0.0 | 0.00 | 0.26 | 0.01 | 94 | 1014.1 |
| 20260505070544 | 39 | 0 | 0.0 | 0.0 | 0.00 | 0.26 | 0.01 | 94 | 1014.1 |
| 20260505070052 | 38 | 0 | 0.0 | 0.0 | 0.01 | 0.26 | 0.01 | 94 | 1014.2 |
| 20260505065548 | 38 | 0 | 0.0 | 0.0 | 0.01 | 0.26 | 0.01 | 94 | 1014.0 |
| 20260505065047 | 38 | 0 | 0.0 | 0.0 | 0.01 | 0.26 | 0.01 | 94 | 1014.0 |
| 20260505064555 | 38 | 0 | 0.0 | 0.0 | 0.01 | 0.26 | 0.01 | 94 | 1014.0 |
| 20260505064051 | 38 | 0 | 0.0 | 0.0 | 0.01 | 0.26 | 0.01 | 94 | 1014.0 |
| 20260505063550 | 38 | 0 | 0.0 | 0.0 | 0.01 | 0.26 | 0.01 | 94 | 1014.1 |
| 20260505063055 | 38 | 0 | 0.0 | 0.0 | 0.01 | 0.26 | 0.01 | 94 | 1014.0 |
| 20260505062545 | 38 | 0 | 0.0 | 0.0 | 0.01 | 0.26 | 0.01 | 94 | 1013.9 |
| 20260505062047 | 38 | 0 | 0.0 | 0.0 | 0.01 | 0.26 | 0.01 | 94 | 1014.0 |
| 20260505061552 | 38 | 0 | 0.0 | 0.0 | 0.01 | 0.26 | 0.01 | 94 | 1014.0 |
| 20260505061047 | 38 | 0 | 0.0 | 0.0 | 0.01 | 0.26 | 0.01 | 94 | 1013.9 |
| 20260505060545 | 38 | 0 | 0.0 | 0.0 | 0.01 | 0.26 | 0.01 | 94 | 1014.0 |
| 20260505060058 | 38 | 0 | 0.0 | 0.0 | 0.00 | 0.25 | 0.00 | 94 | 1014.0 |
| 20260505055545 | 38 | 0 | 0.0 | 0.0 | 0.00 | 0.25 | 0.25 | 94 | 1014.1 |
| 20260505055046 | 38 | 0 | 0.0 | 0.0 | 0.00 | 0.25 | 0.25 | 93 | 1014.0 |
| 20260505054553 | 38 | 0 | 0.0 | 0.0 | 0.00 | 0.25 | 0.25 | 93 | 1014.1 |
| 20260505054044 | 38 | 0 | 0.0 | 0.0 | 0.00 | 0.25 | 0.25 | 93 | 1014.0 |
| 20260505053546 | 38 | 0 | 0.0 | 0.0 | 0.00 | 0.25 | 0.25 | 93 | 1013.8 |
| 20260505053052 | 37 | 0 | 0.0 | 0.0 | 0.00 | 0.25 | 0.25 | 93 | 1013.8 |
| 20260505052544 | 37 | 0 | 0.0 | 0.0 | 0.00 | 0.25 | 0.25 | 93 | 1013.7 |
| 20260505052044 | 37 | 0 | 0.0 | 0.0 | 0.00 | 0.25 | 0.25 | 93 | 1013.8 |
| 20260505051550 | 37 | 0 | 0.0 | 0.0 | 0.00 | 0.25 | 0.25 | 93 | 1013.8 |
| 20260505051045 | 37 | 0 | 0.0 | 0.0 | 0.00 | 0.25 | 0.25 | 93 | 1013.8 |
| 20260505050544 | 37 | 0 | 0.0 | 0.0 | 0.00 | 0.25 | 0.25 | 93 | 1013.8 |
| 20260505041555 | 37 | 0 | 0.0 | 0.0 | 0.01 | 0.25 | 0.25 | 92 | 1014.3 |
| 20260505041043 | 37 | 0 | 0.0 | 0.0 | 0.01 | 0.25 | 0.25 | 92 | 1014.5 |
| 20260505040543 | 38 | 0 | 0.0 | 0.0 | 0.01 | 0.25 | 0.25 | 92 | 1014.6 |
| 20260505040058 | 38 | 0 | 0.0 | 0.0 | 0.02 | 0.25 | 0.25 | 92 | 1014.6 |
| 20260505035544 | 38 | 0 | 0.0 | 0.0 | 0.03 | 0.25 | 0.25 | 92 | 1014.6 |
| 20260505035043 | 38 | 0 | 0.0 | 0.0 | 0.05 | 0.25 | 0.25 | 92 | 1014.6 |
| 20260505034550 | 38 | 0 | 0.0 | 0.0 | 0.07 | 0.25 | 0.25 | 92 | 1014.5 |
| 20260505034044 | 38 | 0 | 0.0 | 0.0 | 0.09 | 0.25 | 0.25 | 92 | 1014.6 |
| 20260505033543 | 38 | 0 | 0.0 | 1.0 | 0.11 | 0.25 | 0.25 | 92 | 1014.6 |
| 20260505033052 | 38 | 0 | 0.0 | 1.0 | 0.13 | 0.25 | 0.25 | 91 | 1014.6 |
| 20260505032544 | 38 | 0 | 0.0 | 1.0 | 0.15 | 0.25 | 0.25 | 91 | 1014.8 |
| 20260505032043 | 38 | 0 | 0.0 | 0.0 | 0.15 | 0.24 | 0.24 | 91 | 1014.8 |
| 20260505031554 | 39 | 0 | 0.0 | 0.0 | 0.17 | 0.24 | 0.24 | 91 | 1014.7 |
| 20260505031043 | 39 | 0 | 0.0 | 2.0 | 0.18 | 0.24 | 0.24 | 91 | 1014.6 |
| 20260505030543 | 39 | 0 | 0.0 | 2.0 | 0.18 | 0.24 | 0.24 | 90 | 1014.5 |
| 20260505030109 | 39 | 276 | 0.0 | 0.0 | 0.17 | 0.23 | 0.23 | 90 | 1014.6 |
| 20260505025544 | 40 | 0 | 0.0 | 0.0 | 0.17 | 0.22 | 0.22 | 90 | 1014.6 |
| 20260505025043 | 40 | 0 | 0.0 | 0.0 | 0.15 | 0.20 | 0.20 | 90 | 1014.6 |
| 20260505024556 | 41 | 0 | 0.0 | 0.0 | 0.13 | 0.18 | 0.18 | 90 | 1014.5 |
| 20260505024043 | 41 | 0 | 0.0 | 2.0 | 0.11 | 0.16 | 0.16 | 89 | 1014.5 |
| 20260505023543 | 41 | 0 | 0.0 | 3.0 | 0.10 | 0.14 | 0.14 | 89 | 1014.5 |
| 20260505023055 | 42 | 0 | 0.0 | 3.0 | 0.08 | 0.12 | 0.12 | 89 | 1014.5 |
| 20260505022543 | 42 | 346 | 0.0 | 0.0 | 0.07 | 0.10 | 0.10 | 88 | 1014.3 |
| 20260505022043 | 42 | 0 | 0.0 | 0.0 | 0.05 | 0.08 | 0.08 | 89 | 1014.2 |
| 20260505021554 | 42 | 0 | 0.0 | 0.0 | 0.05 | 0.07 | 0.07 | 89 | 1014.0 |
| 20260505021045 | 42 | 0 | 0.0 | 0.0 | 0.04 | 0.06 | 0.06 | 88 | 1013.9 |
| 20260505020545 | 42 | 0 | 0.0 | 3.0 | 0.04 | 0.06 | 0.06 | 88 | 1013.8 |
| 20260505020059 | 43 | 0 | 0.0 | 5.0 | 0.04 | 0.06 | 0.06 | 87 | 1013.7 |
| 20260505015546 | 43 | 0 | 1.0 | 10.0 | 0.03 | 0.05 | 0.05 | 87 | 1013.8 |
| 20260505015046 | 43 | 34 | 1.0 | 10.0 | 0.03 | 0.05 | 0.05 | 86 | 1013.7 |
| 20260505014607 | 43 | 0 | 3.0 | 10.0 | 0.03 | 0.05 | 0.05 | 85 | 1013.6 |
| 20260505014042 | 44 | 47 | 0.0 | 11.0 | 0.03 | 0.05 | 0.05 | 84 | 1013.6 |
| 20260505013544 | 44 | 0 | 1.0 | 11.0 | 0.02 | 0.04 | 0.04 | 83 | 1013.5 |
| 20260505013051 | 45 | 54 | 1.0 | 6.0 | 0.02 | 0.04 | 0.04 | 81 | 1013.3 |
| 20260505012543 | 45 | 0 | 0.0 | 2.0 | 0.01 | 0.03 | 0.03 | 78 | 1013.1 |
| 20260505012043 | 46 | 0 | 0.0 | 4.0 | 0.01 | 0.03 | 0.03 | 77 | 1013.3 |
| 20260505011545 | 46 | 0 | 0.0 | 8.0 | 0.00 | 0.02 | 0.02 | 76 | 1013.3 |
| 20260505011047 | 46 | 0 | 0.0 | 9.0 | 0.00 | 0.02 | 0.02 | 74 | 1013.3 |
| 20260505010544 | 47 | 38 | 3.0 | 9.0 | 0.00 | 0.02 | 0.02 | 72 | 1013.3 |
| 20260505010059 | 47 | 0 | 2.0 | 6.0 | 0.00 | 0.02 | 0.02 | 71 | 1013.3 |
| 20260505005551 | 47 | 36 | 1.0 | 6.0 | 0.00 | 0.02 | 0.02 | 69 | 1013.3 |
| 20260505005045 | 48 | 0 | 0.0 | 10.0 | 0.00 | 0.02 | 0.02 | 68 | 1013.4 |
| 20260505004551 | 48 | 34 | 4.0 | 10.0 | 0.00 | 0.02 | 0.02 | 66 | 1013.3 |
| 20260505004044 | 48 | 42 | 1.0 | 6.0 | 0.00 | 0.02 | 0.02 | 65 | 1013.3 |
| 20260505003544 | 49 | 57 | 0.0 | 4.0 | 0.00 | 0.02 | 0.02 | 64 | 1013.2 |
| 20260505003058 | 48 | 0 | 0.0 | 0.0 | 0.00 | 0.02 | 0.02 | 66 | 1013.1 |
| 20260505002544 | 48 | 0 | 0.0 | 0.0 | 0.00 | 0.02 | 0.02 | 66 | 1013.3 |
| 20260505002045 | 48 | 0 | 0.0 | 3.0 | 0.00 | 0.02 | 0.02 | 65 | 1013.3 |
| 20260505001550 | 48 | 0 | 0.0 | 3.0 | 0.00 | 0.02 | 0.02 | 65 | 1013.3 |
| 20260505001043 | 48 | 15 | 0.0 | 2.0 | 0.00 | 0.02 | 0.02 | 66 | 1013.3 |
| 20260505000543 | 48 | 0 | 0.0 | 0.0 | 0.00 | 0.02 | 0.02 | 67 | 1013.3 |
| 20260505000051 | 48 | 0 | 0.0 | 5.0 | 0.00 | 0.02 | 0.02 | 69 | 1013.3 |
| 20260504235545 | 48 | 0 | 0.0 | 5.0 | 0.00 | 0.02 | 0.02 | 68 | 1013.2 |
| 20260504235043 | 48 | 0 | 1.0 | 5.0 | 0.00 | 0.02 | 0.02 | 68 | 1013.3 |
| 20260504234551 | 48 | 0 | 0.0 | 0.0 | 0.00 | 0.02 | 0.02 | 69 | 1013.1 |
| 20260504234047 | 47 | 0 | 0.0 | 0.0 | 0.00 | 0.02 | 0.02 | 70 | 1013.2 |
| 20260504233548 | 47 | 0 | 0.0 | 0.0 | 0.00 | 0.02 | 0.02 | 71 | 1013.2 |
| 20260504233057 | 47 | 0 | 0.0 | 0.0 | 0.00 | 0.02 | 0.02 | 71 | 1013.4 |
| 20260504232543 | 47 | 0 | 0.0 | 0.0 | 0.01 | 0.02 | 0.02 | 73 | 1013.4 |
| 20260504232044 | 47 | 0 | 0.0 | 0.0 | 0.01 | 0.02 | 0.02 | 73 | 1013.4 |
| 20260504231549 | 47 | 0 | 0.0 | 0.0 | 0.01 | 0.02 | 0.02 | 75 | 1013.3 |
| 20260504231044 | 47 | 0 | 0.0 | 0.0 | 0.02 | 0.02 | 0.02 | 75 | 1013.2 |
| 20260504230544 | 47 | 0 | 0.0 | 1.0 | 0.02 | 0.02 | 0.02 | 73 | 1013.1 |
| 20260504230049 | 47 | 0 | 0.0 | 1.0 | 0.02 | 0.02 | 0.02 | 74 | 1012.8 |
| 20260504225543 | 47 | 0 | 0.0 | 1.0 | 0.02 | 0.02 | 0.02 | 76 | 1012.8 |
| 20260504225044 | 47 | 0 | 0.0 | 0.0 | 0.02 | 0.02 | 0.02 | 79 | 1013.1 |
| 20260504224547 | 47 | 0 | 0.0 | 0.0 | 0.02 | 0.02 | 0.02 | 79 | 1013.2 |
| 20260504224048 | 47 | 0 | 0.0 | 0.0 | 0.02 | 0.02 | 0.02 | 78 | 1013.4 |
| 20260504223547 | 47 | 0 | 0.0 | 0.0 | 0.02 | 0.02 | 0.02 | 81 | 1013.6 |
| 20260504223104 | 47 | 0 | 0.0 | 0.0 | 0.02 | 0.02 | 0.02 | 80 | 1013.7 |
| 20260504222544 | 47 | 0 | 0.0 | 1.0 | 0.01 | 0.01 | 0.01 | 76 | 1013.8 |
| 20260504222044 | 48 | 0 | 0.0 | 1.0 | 0.01 | 0.01 | 0.01 | 73 | 1014.0 |
| 20260504221548 | 49 | 0 | 0.0 | 3.0 | 0.01 | 0.01 | 0.01 | 70 | 1014.0 |
| 20260504221045 | 50 | 0 | 0.0 | 3.0 | 0.00 | 0.00 | 0.00 | 65 | 1013.7 |
| 20260504220545 | 50 | 0 | 0.0 | 8.0 | 0.00 | 0.00 | 0.00 | 59 | 1013.8 |
| 20260504220048 | 50 | 0 | 0.0 | 8.0 | 0.00 | 0.00 | 0.00 | 53 | 1013.4 |
| 20260504215547 | 51 | 56 | 0.0 | 12.0 | 0.00 | 0.00 | 0.00 | 52 | 1012.9 |
| 20260504215043 | 51 | 0 | 0.0 | 14.0 | 0.00 | 0.00 | 0.00 | 51 | 1012.8 |
| 20260504214545 | 51 | 39 | 3.0 | 15.0 | 0.00 | 0.00 | 0.00 | 50 | 1012.5 |
| 20260504214045 | 52 | 35 | 8.0 | 15.0 | 0.00 | 0.00 | 0.00 | 48 | 1012.2 |
| 20260504213543 | 52 | 270 | 5.0 | 22.0 | 0.00 | 0.00 | 0.00 | 47 | 1012.3 |
| 20260504213055 | 53 | 26 | 5.0 | 22.0 | 0.00 | 0.00 | 0.00 | 46 | 1012.3 |
| 20260504212547 | 53 | 42 | 4.0 | 15.0 | 0.00 | 0.00 | 0.00 | 45 | 1012.4 |
| 20260504212045 | 54 | 56 | 8.0 | 19.0 | 0.00 | 0.00 | 0.00 | 43 | 1012.2 |
| 20260504211649 | 55 | 26 | 7.0 | 19.0 | 0.00 | 0.00 | 0.00 | 41 | 1012.3 |
| 20260504211044 | 56 | 28 | 10.0 | 17.0 | 0.00 | 0.00 | 0.00 | 39 | 1012.2 |
| 20260504210545 | 57 | 15 | 3.0 | 18.0 | 0.00 | 0.00 | 0.00 | 36 | 1012.2 |
| 20260504210052 | 58 | 18 | 9.0 | 18.0 | 0.00 | 0.00 | 0.00 | 34 | 1012.2 |
| 20260504205543 | 60 | 49 | 1.0 | 6.0 | 0.00 | 0.00 | 0.00 | 27 | 1012.3 |
| 20260504205044 | 60 | 0 | 1.0 | 6.0 | 0.00 | 0.00 | 0.00 | 29 | 1012.1 |
| 20260504204556 | 60 | 49 | 2.0 | 6.0 | 0.00 | 0.00 | 0.00 | 31 | 1012.1 |
| 20260504204045 | 60 | 0 | 2.0 | 6.0 | 0.00 | 0.00 | 0.00 | 31 | 1012.1 |
| 20260504203544 | 60 | 0 | 1.0 | 6.0 | 0.00 | 0.00 | 0.00 | 32 | 1012.3 |
| 20260504203107 | 59 | 0 | 0.0 | 5.0 | 0.00 | 0.00 | 0.00 | 33 | 1012.3 |
| 20260504202545 | 58 | 0 | 0.0 | 5.0 | 0.00 | 0.00 | 0.00 | 33 | 1012.5 |
| 20260504202045 | 58 | 327 | 0.0 | 6.0 | 0.00 | 0.00 | 0.00 | 33 | 1012.4 |
| 20260504201552 | 57 | 0 | 0.0 | 6.0 | 0.00 | 0.00 | 0.00 | 36 | 1012.6 |
| 20260504201044 | 57 | 278 | 1.0 | 8.0 | 0.00 | 0.00 | 0.00 | 36 | 1012.6 |
| 20260504200543 | 56 | 0 | 2.0 | 8.0 | 0.00 | 0.00 | 0.00 | 37 | 1012.8 |
| 20260504200053 | 56 | 0 | 1.0 | 10.0 | 0.00 | 0.00 | 0.00 | 37 | 1013.0 |
| 20260504195544 | 56 | 215 | 2.0 | 11.0 | 0.00 | 0.00 | 0.00 | 36 | 1013.0 |
| 20260504195044 | 56 | 202 | 4.0 | 16.0 | 0.00 | 0.00 | 0.00 | 36 | 1013.1 |
| 20260504194555 | 56 | 235 | 7.0 | 18.0 | 0.00 | 0.00 | 0.00 | 36 | 1013.0 |
| 20260504194044 | 57 | 182 | 4.0 | 18.0 | 0.00 | 0.00 | 0.00 | 33 | 1012.8 |
| 20260504193545 | 58 | 278 | 5.0 | 18.0 | 0.00 | 0.00 | 0.00 | 33 | 1012.9 |
| 20260504193051 | 58 | 0 | 1.0 | 16.0 | 0.00 | 0.00 | 0.00 | 33 | 1013.0 |
| 20260504192543 | 59 | 198 | 1.0 | 16.0 | 0.00 | 0.00 | 0.00 | 33 | 1013.0 |
| 20260504192045 | 59 | 194 | 4.0 | 16.0 | 0.00 | 0.00 | 0.00 | 32 | 1013.0 |
| 20260504191607 | 60 | 238 | 3.0 | 14.0 | 0.00 | 0.00 | 0.00 | 29 | 1013.1 |
| 20260504191044 | 61 | 179 | 3.0 | 14.0 | 0.00 | 0.00 | 0.00 | 28 | 1012.9 |
| 20260504190544 | 61 | 267 | 3.0 | 11.0 | 0.00 | 0.00 | 0.00 | 30 | 1012.9 |
| 20260504190105 | 61 | 250 | 1.0 | 9.0 | 0.00 | 0.00 | 0.00 | 31 | 1012.9 |
| 20260504185544 | 61 | 303 | 1.0 | 7.0 | 0.00 | 0.00 | 0.00 | 32 | 1013.0 |
| 20260504185043 | 60 | 263 | 3.0 | 9.0 | 0.00 | 0.00 | 0.00 | 31 | 1013.0 |
| 20260504184552 | 60 | 279 | 2.0 | 9.0 | 0.00 | 0.00 | 0.00 | 32 | 1013.1 |
| 20260504184043 | 61 | 228 | 2.0 | 8.0 | 0.00 | 0.00 | 0.00 | 32 | 1013.1 |
| 20260504183546 | 61 | 275 | 1.0 | 7.0 | 0.00 | 0.00 | 0.00 | 33 | 1013.1 |
| 20260504183048 | 61 | 201 | 0.0 | 6.0 | 0.00 | 0.00 | 0.00 | 34 | 1013.1 |
| 20260504182545 | 60 | 0 | 2.0 | 6.0 | 0.00 | 0.00 | 0.00 | 32 | 1013.1 |
| 20260504182043 | 60 | 0 | 1.0 | 9.0 | 0.00 | 0.00 | 0.00 | 32 | 1013.2 |
| 20260504181553 | 60 | 0 | 1.0 | 9.0 | 0.00 | 0.00 | 0.00 | 32 | 1013.3 |
| 20260504181045 | 60 | 0 | 1.0 | 6.0 | 0.00 | 0.00 | 0.00 | 32 | 1013.4 |
| 20260504180544 | 61 | 318 | 0.0 | 8.0 | 0.00 | 0.00 | 0.00 | 32 | 1013.4 |
| 20260504180054 | 60 | 350 | 0.0 | 8.0 | 0.00 | 0.00 | 0.00 | 33 | 1013.4 |
| 20260504175544 | 60 | 0 | 1.0 | 7.0 | 0.00 | 0.00 | 0.00 | 34 | 1013.6 |
| 20260504175046 | 59 | 355 | 1.0 | 7.0 | 0.00 | 0.00 | 0.00 | 34 | 1013.6 |
| 20260504174549 | 59 | 240 | 2.0 | 12.0 | 0.00 | 0.00 | 0.00 | 34 | 1013.8 |
| 20260504174046 | 58 | 255 | 2.0 | 12.0 | 0.00 | 0.00 | 0.00 | 34 | 1013.8 |
| 20260504173544 | 58 | 0 | 0.0 | 8.0 | 0.00 | 0.00 | 0.00 | 35 | 1013.9 |